Weather History for Suffolk, VA

Change the Weather History Date:

Wednesday, February 5, 2014

  Actual Average Record
Temperature  
Mean Temperature 41 °F -  
Max Temperature 47 °F 47 °F 75 °F (2008)
Min Temperature 35 °F 29 °F 12 °F (1978)
Degree Days  
Heating Degree Days 24    
Moisture  
Dew Point 40 °F    
Average Humidity 96    
Maximum Humidity 99    
Minimum Humidity 77    
Precipitation  
Precipitation 0.00 in - - ()
Sea Level Pressure  
Sea Level Pressure 29.90 in    
Wind  
Wind Speed 5 mph (West)    
Max Wind Speed 14 mph    
Max Gust Speed 21 mph    
Visibility 6 miles    
Events Fog , Rain    
Averages and records for this station are not official NWS values.
T = Trace of Precipitation, MM = Missing Value Source: NWS Daily Summary

Daily Weather History Graph

Daily Weather History Graph

Search for Another Location

Airport:

Trip Planner

Search our weather history database for the weather conditions in past years. The results will help you decide how hot, cold, wet, or windy it might be!

Date:

Astronomy

Feb. 05, 2014 Rise Set
Actual Time 7:04 AM EST 5:36 PM EST
Civil Twilight 6:37 AM EST 6:03 PM EST
Nautical Twilight 6:07 AM EST 6:34 PM EST
Astronomical Twilight 5:36 AM EST 7:04 PM EST
Moon 10:29 AM EST (2/5) No Moon Set
Length of Visible Light 11h 25m
Length of Day
10h 31m
Waxing Crescent, 39% of the Moon is Illuminated
Feb 5
Waxing Crescent
Feb 6
First Quarter
Feb 14
Full
Feb 22
Last Quarter
Mar 1
New

Hourly Weather History & Observations

Time (EST) Temp. Windchill Dew Point Humidity Pressure Visibility Wind Dir Wind Speed Gust Speed Precip Events Conditions
12:15 AM 36.5 °F 33.9 °F 35.8 °F 97% 30.09 in 5.0 mi East 3.5 mph - N/A Rain Light Rain
12:35 AM 36.7 °F 34.1 °F 36.1 °F 98% 30.07 in 7.0 mi NE 3.5 mph - N/A Rain Rain
12:55 AM 36.9 °F 34.3 °F 36.5 °F 99% 30.05 in 3.0 mi NNE 3.5 mph - N/A   Heavy Drizzle
1:15 AM 37.4 °F - 36.9 °F 98% 30.04 in 7.0 mi Calm Calm - N/A   Overcast
1:35 AM 37.4 °F - 36.9 °F 98% 30.03 in 5.0 mi Calm Calm - N/A Rain Light Rain
1:55 AM 37.0 °F 32.4 °F 36.5 °F 98% 30.03 in 5.0 mi WNW 5.8 mph - N/A   Light Drizzle
2:15 AM 37.0 °F - 36.5 °F 98% 30.01 in 5.0 mi Calm Calm - N/A   Overcast
2:35 AM 37.2 °F 33.6 °F 36.5 °F 97% 30.00 in 7.0 mi WNW 4.6 mph - N/A   Overcast
2:55 AM 37.0 °F 32.4 °F 36.5 °F 98% 30.00 in 5.0 mi NW 5.8 mph - N/A   Overcast
3:15 AM 36.7 °F 32.0 °F 36.1 °F 98% 29.98 in 2.0 mi NW 5.8 mph - N/A   Overcast
3:35 AM 36.5 °F 32.7 °F 36.1 °F 99% 29.98 in 1.5 mi NNW 4.6 mph - N/A   Overcast
3:55 AM 36.3 °F 32.5 °F 35.8 °F 98% 29.97 in 1.2 mi NW 4.6 mph - N/A   Overcast
4:15 AM 36.1 °F 32.3 °F 35.8 °F 99% 29.97 in 1.0 mi West 4.6 mph - N/A   Overcast
4:35 AM 36.0 °F 30.3 °F 35.6 °F 99% 29.95 in 1.0 mi WNW 6.9 mph - N/A Rain Rain
4:55 AM 36.0 °F 29.6 °F 35.6 °F 99% 29.96 in 1.8 mi West 8.1 mph - N/A   Overcast
5:15 AM 35.6 °F 31.7 °F 35.2 °F 99% 29.95 in 1.0 mi WNW 4.6 mph - N/A   Overcast
5:35 AM 35.6 °F - 35.2 °F 99% 29.94 in 1.0 mi Calm Calm - N/A   Overcast
5:55 AM 35.2 °F - 34.9 °F 99% 29.92 in 1.0 mi Calm Calm - N/A   Overcast
6:15 AM 35.6 °F 31.7 °F 35.1 °F 98% 29.93 in 1.2 mi West 4.6 mph - N/A   Overcast
6:35 AM 35.6 °F - 35.1 °F 98% 29.92 in 1.0 mi Calm Calm - N/A   Overcast
6:55 AM 35.6 °F 30.7 °F 35.2 °F 99% 29.93 in 1.0 mi WNW 5.8 mph - N/A   Overcast
7:15 AM 35.6 °F 31.7 °F 35.1 °F 98% 29.93 in 1.0 mi NW 4.6 mph - N/A   Overcast
7:35 AM 35.6 °F 30.7 °F 35.1 °F 98% 29.94 in 0.5 mi West 5.8 mph - N/A Rain Rain
7:55 AM 35.4 °F 32.6 °F 35.1 °F 99% 29.93 in 3.0 mi West 3.5 mph - N/A Rain Light Rain
8:15 AM 35.6 °F 32.8 °F 35.1 °F 98% 29.94 in 2.5 mi West 3.5 mph - N/A Rain Light Rain
8:35 AM 35.6 °F 32.8 °F 35.2 °F 99% 29.93 in 10.0 mi South 3.5 mph - N/A   Overcast
8:55 AM 36.0 °F - 35.6 °F 99% 29.92 in 10.0 mi Calm Calm - N/A   Overcast
9:15 AM 36.1 °F - 35.8 °F 99% 29.91 in 4.0 mi Calm Calm - N/A   Overcast
9:35 AM 36.5 °F 32.7 °F 36.1 °F 99% 29.89 in 2.5 mi South 4.6 mph - N/A   Overcast
9:55 AM 36.7 °F 32.0 °F 36.5 °F 99% 29.88 in 1.8 mi South 5.8 mph - N/A   Overcast
10:15 AM 37.0 °F 32.4 °F 36.7 °F 99% 29.85 in 1.0 mi SSE 5.8 mph - N/A   Overcast
10:35 AM 37.6 °F 32.3 °F 37.2 °F 99% 29.84 in 1.0 mi South 6.9 mph - N/A Rain Light Rain
10:55 AM 38.7 °F 33.6 °F 38.3 °F 99% 29.82 in 0.8 mi South 6.9 mph - N/A   Overcast
11:15 AM 39.2 °F 35.9 °F 38.7 °F 98% 29.81 in 0.5 mi SSW 4.6 mph - N/A Rain Light Rain
11:35 AM 40.1 °F 36.1 °F 39.7 °F 99% 29.79 in 0.8 mi SSW 5.8 mph - N/A Rain Light Rain
11:55 AM 41.2 °F 35.5 °F 41.0 °F 99% 29.79 in 0.5 mi SW 9.2 mph - N/A Fog Fog
12:15 PM 41.4 °F 36.2 °F 41.2 °F 99% 29.80 in 0.5 mi West 8.1 mph - N/A Fog Fog
12:35 PM 41.5 °F 36.4 °F 41.4 °F 99% 29.79 in 0.5 mi West 8.1 mph - N/A Rain Light Rain
12:55 PM 41.9 °F 35.9 °F 41.7 °F 99% 29.78 in 1.2 mi WSW 10.4 mph - N/A   Drizzle
1:15 PM 42.1 °F 36.6 °F 41.9 °F 99% 29.77 in 3.0 mi West 9.2 mph - N/A   Overcast
1:35 PM 42.3 °F 36.8 °F 42.1 °F 99% 29.77 in 1.2 mi WSW 9.2 mph - N/A   Overcast
1:55 PM 43.0 °F 37.7 °F 42.8 °F 99% 29.76 in 1.0 mi WSW 9.2 mph - N/A   Overcast
2:15 PM 43.9 °F 38.3 °F 43.7 °F 99% 29.77 in 2.5 mi WSW 10.4 mph - N/A   Overcast
2:35 PM 45.1 °F 40.3 °F 44.8 °F 99% 29.76 in 5.0 mi SW 9.2 mph - N/A   Overcast
2:55 PM 46.6 °F - 46.0 °F 98% 29.76 in 10.0 mi SW 12.7 mph 19.6 mph N/A   Overcast
3:15 PM 47.3 °F - 46.6 °F 97% 29.77 in 10.0 mi WSW 13.8 mph 18.4 mph N/A   Overcast
3:35 PM 47.3 °F - 46.2 °F 96% 29.78 in 10.0 mi West 13.8 mph 20.7 mph N/A   Overcast
3:55 PM 47.3 °F - 45.9 °F 95% 29.78 in 10.0 mi WSW 12.7 mph 16.1 mph N/A   Overcast
4:15 PM 47.3 °F - 45.7 °F 94% 29.79 in 10.0 mi WSW 13.8 mph 18.4 mph N/A   Overcast
4:35 PM 47.5 °F - 45.9 °F 94% 29.80 in 10.0 mi West 10.4 mph 16.1 mph N/A   Overcast
4:55 PM 47.5 °F - 45.9 °F 94% 29.81 in 10.0 mi WSW 9.2 mph - N/A   Overcast
5:15 PM 47.8 °F - 46.0 °F 93% 29.81 in 10.0 mi WSW 9.2 mph - N/A   Overcast
5:35 PM 47.7 °F - 45.9 °F 93% 29.82 in 10.0 mi SW 6.9 mph - N/A   Overcast
5:55 PM 47.7 °F - 46.0 °F 94% 29.83 in 10.0 mi SW 8.1 mph - N/A   Overcast
6:15 PM 47.5 °F - 45.7 °F 93% 29.84 in 10.0 mi SW 6.9 mph - N/A   Overcast
6:35 PM 46.9 °F - 45.5 °F 95% 29.85 in 10.0 mi SW 5.8 mph - N/A   Overcast
6:55 PM 46.8 °F - 45.5 °F 95% 29.87 in 10.0 mi SW 5.8 mph - N/A   Mostly Cloudy
7:15 PM 46.8 °F - 45.5 °F 95% 29.88 in 10.0 mi WSW 6.9 mph - N/A   Overcast
7:35 PM 45.7 °F 42.7 °F 43.9 °F 93% 29.88 in 10.0 mi WSW 5.8 mph - N/A   Scattered Clouds
7:55 PM 45.0 °F 42.6 °F 43.9 °F 96% 29.89 in 10.0 mi WSW 4.6 mph - N/A   Clear
8:15 PM 45.0 °F 42.6 °F 44.1 °F 97% 29.90 in 10.0 mi WSW 4.6 mph - N/A   Clear
8:35 PM 43.7 °F 41.1 °F 43.0 °F 97% 29.91 in 5.0 mi West 4.6 mph - N/A   Clear
8:55 PM 43.7 °F 41.1 °F 43.2 °F 98% 29.93 in 10.0 mi West 4.6 mph - N/A   Clear
9:15 PM 43.9 °F 40.5 °F 43.3 °F 98% 29.94 in 10.0 mi WNW 5.8 mph - N/A   Clear
9:35 PM 43.9 °F 40.5 °F 43.3 °F 98% 29.95 in 10.0 mi West 5.8 mph - N/A   Clear
9:55 PM 44.1 °F 39.5 °F 43.3 °F 97% 29.97 in 10.0 mi WNW 8.1 mph - N/A   Clear
10:15 PM 44.6 °F 39.7 °F 42.4 °F 92% 29.98 in 10.0 mi NW 9.2 mph - N/A   Clear
10:35 PM 44.8 °F 41.6 °F 39.6 °F 82% 30.00 in 10.0 mi NW 5.8 mph - N/A   Clear
10:55 PM 44.6 °F 40.2 °F 38.3 °F 79% 30.01 in 10.0 mi NW 8.1 mph - N/A   Clear
11:15 PM 43.9 °F 40.5 °F 37.4 °F 78% 30.02 in 10.0 mi NW 5.8 mph - N/A   Clear
11:35 PM 43.7 °F 40.3 °F 37.0 °F 77% 30.03 in 10.0 mi NW 5.8 mph - N/A   Clear
11:55 PM 42.8 °F 40.1 °F 37.0 °F 80% 30.04 in 10.0 mi NW 4.6 mph - N/A   Clear